Time,TemperatureF,DewpointF,PressureIn,WindDirection,WindDirectionDegrees,WindSpeedMPH,WindSpeedGustMPH,Humidity,HourlyPrecipIn,Conditions,Clouds,dailyrainin,SoftwareType,DateUTC
2013-06-01 00:02:00,68.8,67.1,28.86,South,173,10.6,14.4,94,0.00,,,0.05,proprietary,2013-06-01 04:02:00,
2013-06-01 00:03:00,68.8,67.1,28.86,SSE,168,11.0,16.3,94,0.00,,,0.05,proprietary,2013-06-01 04:03:00,
2013-06-01 00:05:00,68.9,67.2,28.87,South,172,11.5,13.6,94,0.00,,,0.00,proprietary,2013-06-01 04:05:00,
2013-06-01 00:07:00,68.9,67.2,28.87,South,183,11.5,14.4,94,0.00,,,0.00,proprietary,2013-06-01 04:07:00,
2013-06-01 00:12:00,68.9,67.2,28.87,South,172,9.8,15.0,94,0.00,,,0.00,proprietary,2013-06-01 04:12:00,
2013-06-01 00:14:00,68.9,67.3,28.87,SSE,168,11.2,19.3,94,0.00,,,0.00,proprietary,2013-06-01 04:14:00,
2013-06-01 00:19:00,69.0,67.3,28.86,South,171,13.6,17.5,94,0.00,,,0.00,proprietary,2013-06-01 04:19:00,
2013-06-01 00:24:00,69.1,67.3,28.86,South,170,11.2,14.4,93,0.01,,,0.01,proprietary,2013-06-01 04:24:00,
2013-06-01 00:29:00,69.1,67.3,28.87,South,189,11.3,13.1,93,0.01,,,0.01,proprietary,2013-06-01 04:29:00,
2013-06-01 00:35:00,69.2,67.2,28.88,South,183,10.9,13.3,93,0.02,,,0.02,proprietary,2013-06-01 04:35:00,
2013-06-01 00:40:00,69.5,67.1,28.87,South,172,13.5,15.7,91,0.02,,,0.02,proprietary,2013-06-01 04:40:00,
2013-06-01 00:45:00,69.4,66.7,28.86,South,171,12.5,19.0,91,0.03,,,0.03,proprietary,2013-06-01 04:45:00,
2013-06-01 00:50:00,69.2,66.3,28.86,SSE,168,10.6,14.1,90,0.03,,,0.03,proprietary,2013-06-01 04:50:00,
2013-06-01 00:55:00,69.2,66.0,28.86,South,184,11.1,13.0,89,0.03,,,0.03,proprietary,2013-06-01 04:55:00,
2013-06-01 01:00:00,68.9,66.0,28.86,South,186,8.6,9.6,90,0.03,,,0.03,proprietary,2013-06-01 05:00:00,
2013-06-01 01:06:00,68.9,65.8,28.86,South,182,11.2,15.3,89,0.03,,,0.03,proprietary,2013-06-01 05:06:00,
2013-06-01 01:11:00,68.7,65.7,28.85,South,182,9.9,13.4,90,0.03,,,0.03,proprietary,2013-06-01 05:11:00,
2013-06-01 01:16:00,68.5,65.6,28.85,South,185,9.5,12.1,90,0.03,,,0.03,proprietary,2013-06-01 05:16:00,
2013-06-01 01:21:00,68.4,65.4,28.84,South,174,7.3,9.7,90,0.02,,,0.03,proprietary,2013-06-01 05:21:00,
2013-06-01 01:26:00,68.1,65.3,28.84,South,179,8.7,11.6,90,0.03,,,0.04,proprietary,2013-06-01 05:26:00,
2013-06-01 01:32:00,68.1,64.9,28.83,South,177,7.4,11.5,89,0.03,,,0.04,proprietary,2013-06-01 05:32:00,
2013-06-01 01:37:00,67.7,64.4,28.83,South,180,7.5,8.9,89,0.02,,,0.04,proprietary,2013-06-01 05:37:00,
2013-06-01 01:43:00,67.4,64.1,28.83,South,169,7.4,10.0,89,0.02,,,0.04,proprietary,2013-06-01 05:43:00,
2013-06-01 01:48:00,67.3,63.8,28.82,SSE,160,6.4,8.8,88,0.01,,,0.04,proprietary,2013-06-01 05:48:00,
2013-06-01 01:53:00,67.2,63.7,28.82,South,181,5.2,7.4,88,0.01,,,0.04,proprietary,2013-06-01 05:53:00,
2013-06-01 01:58:00,66.8,64.0,28.84,SW,214,2.6,3.7,90,0.01,,,0.04,proprietary,2013-06-01 05:58:00,
2013-06-01 02:03:00,66.8,63.8,28.83,SW,214,2.9,4.0,90,0.02,,,0.05,proprietary,2013-06-01 06:03:00,
2013-06-01 02:08:00,66.6,63.7,28.83,SSW,194,3.7,5.2,90,0.02,,,0.05,proprietary,2013-06-01 06:08:00,
2013-06-01 02:13:00,66.9,63.4,28.83,SW,216,3.1,4.5,88,0.02,,,0.05,proprietary,2013-06-01 06:13:00,
2013-06-01 02:18:00,66.8,63.1,28.82,WSW,241,2.5,4.3,88,0.02,,,0.05,proprietary,2013-06-01 06:18:00,
2013-06-01 02:24:00,66.7,62.6,28.82,SSE,157,3.8,4.7,86,0.02,,,0.05,proprietary,2013-06-01 06:24:00,
2013-06-01 02:29:00,66.3,62.8,28.82,SSW,200,3.8,4.6,88,0.01,,,0.05,proprietary,2013-06-01 06:29:00,
2013-06-01 02:34:00,66.3,62.8,28.83,WSW,253,2.2,2.9,88,0.01,,,0.05,proprietary,2013-06-01 06:34:00,
2013-06-01 02:39:00,66.1,62.8,28.83,SE,144,5.0,5.5,89,0.01,,,0.05,proprietary,2013-06-01 06:39:00,
2013-06-01 02:44:00,66.0,62.9,28.82,South,177,3.7,4.0,89,0.01,,,0.05,proprietary,2013-06-01 06:44:00,
2013-06-01 02:49:00,65.7,63.0,28.83,South,179,4.0,6.8,91,0.01,,,0.05,proprietary,2013-06-01 06:49:00,
2013-06-01 02:54:00,65.8,62.7,28.82,SSE,167,8.0,9.8,89,0.01,,,0.05,proprietary,2013-06-01 06:54:00,
2013-06-01 02:59:00,66.1,62.5,28.82,South,173,4.7,8.5,88,0.01,,,0.05,proprietary,2013-06-01 06:59:00,
2013-06-01 03:04:00,66.1,62.6,28.82,SSW,195,3.3,4.7,88,0.01,,,0.06,proprietary,2013-06-01 07:04:00,
2013-06-01 03:09:00,66.0,62.8,28.83,SSW,202,3.2,5.1,89,0.01,,,0.06,proprietary,2013-06-01 07:09:00,
2013-06-01 03:14:00,65.8,62.5,28.83,SSW,193,9.5,13.7,88,0.01,,,0.06,proprietary,2013-06-01 07:14:00,
2013-06-01 03:20:00,65.5,62.1,28.82,South,179,8.2,10.4,88,0.01,,,0.06,proprietary,2013-06-01 07:20:00,
2013-06-01 03:25:00,65.3,61.7,28.83,SSW,204,4.8,7.2,88,0.01,,,0.06,proprietary,2013-06-01 07:25:00,
2013-06-01 03:30:00,65.2,61.8,28.83,South,174,4.2,5.7,88,0.01,,,0.06,proprietary,2013-06-01 07:30:00,
2013-06-01 03:35:00,65.0,61.6,28.84,South,190,6.6,8.6,88,0.01,,,0.06,proprietary,2013-06-01 07:35:00,
2013-06-01 03:40:00,64.9,61.5,28.83,South,183,6.9,10.2,88,0.01,,,0.06,proprietary,2013-06-01 07:40:00,
2013-06-01 03:45:00,64.7,61.4,28.82,South,190,8.4,10.6,89,0.01,,,0.06,proprietary,2013-06-01 07:45:00,
2013-06-01 03:50:00,64.7,61.3,28.83,SSW,197,6.1,8.5,88,0.01,,,0.06,proprietary,2013-06-01 07:50:00,
2013-06-01 03:55:00,64.6,61.3,28.83,South,175,7.6,9.6,89,0.01,,,0.06,proprietary,2013-06-01 07:55:00,
2013-06-01 04:00:00,64.6,60.8,28.83,South,186,9.0,10.7,87,0.01,,,0.06,proprietary,2013-06-01 08:00:00,
2013-06-01 04:06:00,64.5,60.7,28.84,South,178,12.3,14.7,87,0.00,,,0.06,proprietary,2013-06-01 08:06:00,
2013-06-01 04:11:00,64.2,60.8,28.84,South,187,9.0,10.0,88,0.00,,,0.06,proprietary,2013-06-01 08:11:00,
2013-06-01 04:16:00,63.8,61.0,28.84,SSW,197,10.4,13.7,90,0.01,,,0.07,proprietary,2013-06-01 08:16:00,
2013-06-01 04:21:00,63.7,61.1,28.85,SSW,199,8.0,9.7,91,0.02,,,0.08,proprietary,2013-06-01 08:21:00,
2013-06-01 04:26:00,63.5,61.2,28.86,SW,214,4.0,8.3,92,0.03,,,0.09,proprietary,2013-06-01 08:26:00,
2013-06-01 04:31:00,63.3,61.3,28.86,South,186,5.7,6.8,93,0.04,,,0.10,proprietary,2013-06-01 08:31:00,
2013-06-01 04:36:00,63.3,61.6,28.86,South,180,9.6,16.1,94,0.06,,,0.12,proprietary,2013-06-01 08:36:00,
2013-06-01 04:41:00,63.3,61.8,28.87,SSW,208,8.9,10.9,94,0.08,,,0.14,proprietary,2013-06-01 08:41:00,
2013-06-01 04:46:00,63.4,61.9,28.87,SSW,205,7.0,11.7,94,0.10,,,0.16,proprietary,2013-06-01 08:46:00,
2013-06-01 04:51:00,63.5,62.1,28.87,SSW,194,6.0,10.1,95,0.11,,,0.17,proprietary,2013-06-01 08:51:00,
2013-06-01 04:56:00,63.5,62.1,28.87,SSW,203,9.4,12.9,95,0.13,,,0.19,proprietary,2013-06-01 08:56:00,
2013-06-01 05:01:00,63.5,62.2,28.86,SSW,196,7.0,10.6,95,0.15,,,0.21,proprietary,2013-06-01 09:01:00,
2013-06-01 05:06:00,63.5,62.2,28.85,SSW,198,4.1,5.0,95,0.17,,,0.23,proprietary,2013-06-01 09:06:00,
2013-06-01 05:11:00,63.5,62.2,28.85,South,188,5.3,6.6,95,0.19,,,0.25,proprietary,2013-06-01 09:11:00,
2013-06-01 05:16:00,63.5,62.3,28.85,SW,214,4.9,7.4,95,0.19,,,0.26,proprietary,2013-06-01 09:16:00,
2013-06-01 05:21:00,63.5,62.2,28.83,South,189,2.2,3.3,95,0.19,,,0.27,proprietary,2013-06-01 09:21:00,
2013-06-01 05:26:00,63.5,62.2,28.82,ESE,104,1.8,2.5,95,0.18,,,0.27,proprietary,2013-06-01 09:26:00,
2013-06-01 05:31:00,63.2,62.1,28.81,SSE,147,2.6,3.5,96,0.17,,,0.27,proprietary,2013-06-01 09:31:00,
2013-06-01 05:36:00,63.2,62.1,28.80,SSE,154,4.8,6.4,96,0.15,,,0.27,proprietary,2013-06-01 09:36:00,
2013-06-01 05:41:00,63.2,62.2,28.82,South,173,7.1,8.9,96,0.13,,,0.27,proprietary,2013-06-01 09:41:00,
2013-06-01 05:46:00,63.1,62.1,28.82,SSE,160,6.8,8.6,96,0.11,,,0.27,proprietary,2013-06-01 09:46:00,
2013-06-01 05:51:00,63.1,62.1,28.82,SW,219,3.5,4.5,96,0.10,,,0.27,proprietary,2013-06-01 09:51:00,
2013-06-01 05:56:00,63.1,62.1,28.82,SE,144,5.1,7.3,96,0.08,,,0.27,proprietary,2013-06-01 09:56:00,
2013-06-01 06:01:00,63.0,62.0,28.80,SE,136,5.6,8.2,96,0.06,,,0.27,proprietary,2013-06-01 10:01:00,
2013-06-01 06:06:00,62.9,62.0,28.80,South,182,6.1,8.5,96,0.04,,,0.27,proprietary,2013-06-01 10:06:00,
2013-06-01 06:11:00,62.9,62.0,28.83,SSW,201,3.3,4.7,96,0.03,,,0.28,proprietary,2013-06-01 10:11:00,
2013-06-01 06:16:00,63.0,62.1,28.84,SSW,193,4.6,6.7,96,0.02,,,0.28,proprietary,2013-06-01 10:16:00,
2013-06-01 06:21:00,63.0,62.1,28.84,South,183,6.3,7.7,96,0.01,,,0.28,proprietary,2013-06-01 10:21:00,
2013-06-01 06:26:00,62.9,62.0,28.82,SSE,155,6.0,7.1,96,0.01,,,0.28,proprietary,2013-06-01 10:26:00,
2013-06-01 06:31:00,62.9,61.9,28.82,SSE,166,7.1,8.3,96,0.01,,,0.28,proprietary,2013-06-01 10:31:00,
2013-06-01 06:36:00,62.9,61.9,28.82,SSE,168,5.2,5.9,96,0.01,,,0.28,proprietary,2013-06-01 10:36:00,
2013-06-01 06:41:00,62.9,61.9,28.82,South,170,5.8,7.7,96,0.01,,,0.28,proprietary,2013-06-01 10:41:00,
2013-06-01 06:46:00,62.9,61.9,28.83,South,177,3.6,4.4,96,0.01,,,0.28,proprietary,2013-06-01 10:46:00,
2013-06-01 06:51:00,62.9,61.9,28.83,South,180,3.7,4.2,96,0.01,,,0.28,proprietary,2013-06-01 10:51:00,
2013-06-01 06:56:00,62.9,61.8,28.84,South,184,5.8,7.1,96,0.01,,,0.28,proprietary,2013-06-01 10:56:00,
2013-06-01 07:01:00,62.9,61.8,28.83,South,178,4.5,5.0,96,0.01,,,0.28,proprietary,2013-06-01 11:01:00,
2013-06-01 07:06:00,62.9,61.8,28.83,SSE,159,5.2,7.1,95,0.01,,,0.28,proprietary,2013-06-01 11:06:00,
2013-06-01 07:11:00,63.0,61.8,28.83,SSE,161,6.1,7.5,95,0.00,,,0.28,proprietary,2013-06-01 11:11:00,
2013-06-01 07:16:00,63.0,61.7,28.83,SSE,167,4.7,5.4,95,0.00,,,0.28,proprietary,2013-06-01 11:16:00,
2013-06-01 07:21:00,63.0,61.7,28.84,South,183,6.1,7.8,95,0.00,,,0.28,proprietary,2013-06-01 11:21:00,
2013-06-01 07:26:00,63.1,61.8,28.83,SSW,195,3.4,5.1,95,0.00,,,0.28,proprietary,2013-06-01 11:26:00,
2013-06-01 07:31:00,63.2,61.8,28.82,SSE,159,4.1,4.7,95,0.00,,,0.28,proprietary,2013-06-01 11:31:00,
2013-06-01 07:36:00,63.2,61.8,28.82,South,184,4.5,5.7,95,0.00,,,0.28,proprietary,2013-06-01 11:36:00,
2013-06-01 07:41:00,63.3,61.9,28.81,SSE,166,4.4,6.1,94,0.00,,,0.28,proprietary,2013-06-01 11:41:00,
2013-06-01 07:46:00,63.5,61.9,28.81,SSE,163,5.4,6.0,94,0.00,,,0.28,proprietary,2013-06-01 11:46:00,
2013-06-01 07:51:00,63.6,62.0,28.80,South,171,5.9,7.4,94,0.00,,,0.28,proprietary,2013-06-01 11:51:00,
2013-06-01 07:56:00,63.8,62.2,28.80,SSE,163,7.5,8.4,94,0.00,,,0.28,proprietary,2013-06-01 11:56:00,
2013-06-01 08:01:00,63.8,62.1,28.80,South,174,8.8,10.5,94,0.00,,,0.28,proprietary,2013-06-01 12:01:00,
2013-06-01 08:06:00,64.1,62.4,28.80,South,174,9.4,11.9,94,0.00,,,0.28,proprietary,2013-06-01 12:06:00,
2013-06-01 08:11:00,64.3,62.5,28.80,South,173,7.3,10.3,93,0.00,,,0.28,proprietary,2013-06-01 12:11:00,
2013-06-01 08:16:00,64.4,62.6,28.80,South,174,6.4,8.5,93,0.00,,,0.28,proprietary,2013-06-01 12:16:00,
2013-06-01 08:21:00,64.6,62.6,28.80,South,173,8.1,10.4,93,0.00,,,0.28,proprietary,2013-06-01 12:21:00,
2013-06-01 08:26:00,64.7,62.6,28.80,South,169,7.7,10.0,93,0.00,,,0.28,proprietary,2013-06-01 12:26:00,
2013-06-01 08:31:00,64.9,62.5,28.79,South,174,10.2,12.4,92,0.00,,,0.28,proprietary,2013-06-01 12:31:00,
2013-06-01 08:36:00,64.9,62.5,28.78,SSE,166,9.0,10.6,92,0.00,,,0.28,proprietary,2013-06-01 12:36:00,
2013-06-01 08:41:00,65.1,62.7,28.78,South,175,9.5,13.1,91,0.00,,,0.28,proprietary,2013-06-01 12:41:00,
2013-06-01 08:46:00,65.3,62.6,28.77,South,170,9.3,11.6,91,0.00,,,0.28,proprietary,2013-06-01 12:46:00,
2013-06-01 08:51:00,65.6,63.0,28.78,SSE,167,12.0,14.4,91,0.00,,,0.28,proprietary,2013-06-01 12:51:00,
2013-06-01 08:56:00,65.9,63.0,28.77,South,177,7.5,10.4,90,0.00,,,0.28,proprietary,2013-06-01 12:56:00,
2013-06-01 09:01:00,66.1,63.2,28.77,South,172,11.2,18.5,90,0.00,,,0.28,proprietary,2013-06-01 13:01:00,
2013-06-01 09:06:00,66.1,63.0,28.77,South,179,11.4,14.7,89,0.00,,,0.28,proprietary,2013-06-01 13:06:00,
2013-06-01 09:11:00,66.3,63.3,28.77,South,172,9.7,11.6,90,0.00,,,0.28,proprietary,2013-06-01 13:11:00,
2013-06-01 09:16:00,66.7,63.6,28.77,SSE,160,10.3,12.6,89,0.00,,,0.28,proprietary,2013-06-01 13:16:00,
2013-06-01 09:21:00,66.6,63.4,28.78,SSE,168,12.1,17.5,89,0.00,,,0.28,proprietary,2013-06-01 13:21:00,
2013-06-01 09:26:00,66.4,63.4,28.78,SSW,196,7.7,9.7,90,0.00,,,0.28,proprietary,2013-06-01 13:26:00,
2013-06-01 09:31:00,66.3,63.0,28.78,South,188,10.0,12.9,88,0.00,,,0.28,proprietary,2013-06-01 13:31:00,
2013-06-01 09:36:00,66.3,63.2,28.79,SSW,195,8.0,10.0,89,0.00,,,0.28,proprietary,2013-06-01 13:36:00,
2013-06-01 09:41:00,66.5,63.2,28.79,SSW,194,10.4,14.0,89,0.00,,,0.28,proprietary,2013-06-01 13:41:00,
2013-06-01 09:46:00,66.7,63.4,28.79,SSW,209,7.1,9.5,89,0.00,,,0.28,proprietary,2013-06-01 13:46:00,
2013-06-01 09:51:00,66.8,63.0,28.80,SW,217,5.2,9.1,87,0.00,,,0.28,proprietary,2013-06-01 13:51:00,
2013-06-01 09:56:00,66.8,63.1,28.80,South,190,6.2,8.8,88,0.00,,,0.28,proprietary,2013-06-01 13:56:00,
2013-06-01 10:01:00,66.9,63.3,28.80,SSW,196,6.7,7.6,88,0.00,,,0.28,proprietary,2013-06-01 14:01:00,
2013-06-01 10:06:00,67.9,63.8,28.79,SSW,204,9.2,12.9,86,0.00,,,0.28,proprietary,2013-06-01 14:06:00,
2013-06-01 10:11:00,68.5,63.7,28.79,South,176,8.4,12.6,84,0.00,,,0.28,proprietary,2013-06-01 14:11:00,
2013-06-01 10:16:00,68.6,63.5,28.79,SSW,205,10.2,13.6,83,0.00,,,0.28,proprietary,2013-06-01 14:16:00,
2013-06-01 10:21:00,69.2,64.0,28.79,South,180,9.7,12.4,83,0.00,,,0.28,proprietary,2013-06-01 14:21:00,
2013-06-01 10:26:00,69.3,63.5,28.79,SSW,204,6.6,10.0,81,0.00,,,0.28,proprietary,2013-06-01 14:26:00,
2013-06-01 10:31:00,70.2,64.2,28.79,South,188,4.8,6.7,81,0.00,,,0.28,proprietary,2013-06-01 14:31:00,
2013-06-01 10:36:00,70.5,64.4,28.79,South,188,7.0,12.3,80,0.00,,,0.28,proprietary,2013-06-01 14:36:00,
2013-06-01 10:41:00,71.5,64.4,28.79,South,179,7.8,10.0,78,0.00,,,0.28,proprietary,2013-06-01 14:41:00,
2013-06-01 10:46:00,71.7,63.1,28.80,SSW,197,7.9,9.6,74,0.00,,,0.28,proprietary,2013-06-01 14:46:00,
2013-06-01 10:51:00,71.9,63.9,28.80,SSW,193,5.8,8.1,75,0.00,,,0.28,proprietary,2013-06-01 14:51:00,
2013-06-01 10:56:00,71.0,62.8,28.81,SSW,194,10.0,13.3,75,0.00,,,0.28,proprietary,2013-06-01 14:56:00,
2013-06-01 11:01:00,71.7,63.3,28.81,SSW,207,4.4,7.1,74,0.00,,,0.28,proprietary,2013-06-01 15:01:00,
2013-06-01 11:06:00,71.5,62.8,28.81,SSW,194,6.2,7.2,74,0.00,,,0.28,proprietary,2013-06-01 15:06:00,
2013-06-01 11:11:00,72.0,63.0,28.81,South,190,6.9,9.4,73,0.00,,,0.28,proprietary,2013-06-01 15:11:00,
2013-06-01 11:16:00,73.1,63.7,28.81,SSW,193,6.9,9.8,72,0.00,,,0.28,proprietary,2013-06-01 15:16:00,
2013-06-01 11:21:00,73.2,63.5,28.81,SW,223,5.5,10.1,71,0.00,,,0.28,proprietary,2013-06-01 15:21:00,
2013-06-01 11:26:00,72.3,62.6,28.81,SW,230,4.9,9.2,71,0.00,,,0.28,proprietary,2013-06-01 15:26:00,
2013-06-01 11:31:00,72.5,63.2,28.81,SSW,202,3.6,5.1,72,0.00,,,0.28,proprietary,2013-06-01 15:31:00,
2013-06-01 11:36:00,72.8,63.5,28.82,West,277,1.4,4.5,72,0.00,,,0.28,proprietary,2013-06-01 15:36:00,
2013-06-01 11:41:00,72.6,62.9,28.82,South,191,2.7,4.3,71,0.00,,,0.28,proprietary,2013-06-01 15:41:00,
2013-06-01 11:46:00,73.2,63.3,28.82,SW,226,5.2,8.7,71,0.00,,,0.28,proprietary,2013-06-01 15:46:00,
2013-06-01 11:51:00,73.3,63.7,28.82,West,265,5.3,9.9,71,0.00,,,0.28,proprietary,2013-06-01 15:51:00,
2013-06-01 11:56:00,73.9,63.8,28.82,WSW,247,6.5,9.1,70,0.00,,,0.28,proprietary,2013-06-01 15:56:00,
2013-06-01 12:01:00,73.7,63.2,28.82,South,191,7.5,9.3,69,0.00,,,0.28,proprietary,2013-06-01 16:01:00,
2013-06-01 12:06:00,73.8,63.4,28.82,SSW,208,6.5,9.7,69,0.00,,,0.28,proprietary,2013-06-01 16:06:00,
2013-06-01 12:11:00,73.9,63.7,28.82,South,190,5.7,9.6,70,0.00,,,0.28,proprietary,2013-06-01 16:11:00,
2013-06-01 12:16:00,74.4,63.2,28.82,South,187,10.0,13.0,67,0.00,,,0.28,proprietary,2013-06-01 16:16:00,
2013-06-01 12:21:00,75.1,63.1,28.82,SSW,212,6.2,9.5,66,0.00,,,0.28,proprietary,2013-06-01 16:21:00,
2013-06-01 12:26:00,74.6,62.5,28.82,SW,223,5.1,6.2,65,0.00,,,0.28,proprietary,2013-06-01 16:26:00,
2013-06-01 12:31:00,74.3,62.4,28.82,SW,214,5.2,10.6,66,0.00,,,0.28,proprietary,2013-06-01 16:31:00,
2013-06-01 12:36:00,74.3,62.7,28.82,SSW,204,4.4,6.2,67,0.00,,,0.28,proprietary,2013-06-01 16:36:00,
2013-06-01 12:41:00,74.7,62.9,28.82,WSW,240,5.7,8.2,66,0.00,,,0.28,proprietary,2013-06-01 16:41:00,
2013-06-01 12:46:00,74.4,63.5,28.82,SW,221,2.2,3.5,68,0.00,,,0.28,proprietary,2013-06-01 16:46:00,
2013-06-01 12:51:00,75.1,63.7,28.82,West,262,4.2,6.7,67,0.00,,,0.28,proprietary,2013-06-01 16:51:00,
2013-06-01 12:56:00,75.0,63.2,28.82,SSW,210,4.7,5.9,66,0.00,,,0.28,proprietary,2013-06-01 16:56:00,
2013-06-01 13:01:00,75.5,63.4,28.82,SSW,199,6.3,10.9,66,0.00,,,0.28,proprietary,2013-06-01 17:01:00,
2013-06-01 13:06:00,75.3,63.0,28.82,SW,217,3.5,5.5,65,0.00,,,0.28,proprietary,2013-06-01 17:06:00,
2013-06-01 13:11:00,76.0,62.9,28.82,SSW,199,10.8,14.7,63,0.00,,,0.28,proprietary,2013-06-01 17:11:00,
2013-06-01 13:16:00,76.5,63.0,28.81,SSW,192,9.4,12.1,62,0.00,,,0.28,proprietary,2013-06-01 17:16:00,
2013-06-01 13:21:00,76.2,62.7,28.81,South,183,8.3,9.8,62,0.00,,,0.28,proprietary,2013-06-01 17:21:00,
2013-06-01 13:26:00,76.1,62.3,28.82,South,189,5.8,7.8,62,0.00,,,0.28,proprietary,2013-06-01 17:26:00,
2013-06-01 13:31:00,75.7,62.9,28.82,SW,214,9.1,14.0,64,0.00,,,0.28,proprietary,2013-06-01 17:31:00,
2013-06-01 13:36:00,75.8,62.0,28.82,South,186,8.3,13.0,62,0.00,,,0.28,proprietary,2013-06-01 17:36:00,
2013-06-01 13:41:00,76.5,63.5,28.81,SSW,194,7.3,11.6,64,0.00,,,0.28,proprietary,2013-06-01 17:41:00,
2013-06-01 13:46:00,76.0,62.1,28.82,SW,222,3.6,5.1,62,0.00,,,0.28,proprietary,2013-06-01 17:46:00,
2013-06-01 13:51:00,75.7,62.0,28.81,SSW,197,8.3,12.9,62,0.00,,,0.28,proprietary,2013-06-01 17:51:00,
2013-06-01 13:56:00,75.5,62.5,28.81,SSW,206,3.7,7.1,63,0.00,,,0.28,proprietary,2013-06-01 17:56:00,
2013-06-01 14:01:00,75.5,62.0,28.81,SSW,206,5.2,6.6,62,0.00,,,0.28,proprietary,2013-06-01 18:01:00,
2013-06-01 14:06:00,75.6,62.7,28.82,SSW,196,6.1,7.7,64,0.00,,,0.28,proprietary,2013-06-01 18:06:00,
2013-06-01 14:11:00,75.0,63.1,28.82,South,186,6.3,8.7,66,0.00,,,0.28,proprietary,2013-06-01 18:11:00,
2013-06-01 14:16:00,74.8,63.3,28.81,South,180,9.7,13.3,67,0.00,,,0.28,proprietary,2013-06-01 18:16:00,
2013-06-01 14:21:00,75.3,62.6,28.81,SW,217,5.2,6.2,64,0.00,,,0.28,proprietary,2013-06-01 18:21:00,
2013-06-01 14:26:00,76.2,63.3,28.81,SSW,209,4.8,8.5,64,0.00,,,0.28,proprietary,2013-06-01 18:26:00,
2013-06-01 14:31:00,76.3,62.4,28.81,SSW,197,7.4,10.6,62,0.00,,,0.28,proprietary,2013-06-01 18:31:00,
2013-06-01 14:36:00,76.1,62.0,28.81,SSW,202,6.6,8.5,61,0.00,,,0.28,proprietary,2013-06-01 18:36:00,
2013-06-01 14:41:00,76.0,62.3,28.81,SW,222,6.9,10.2,62,0.00,,,0.28,proprietary,2013-06-01 18:41:00,
2013-06-01 14:46:00,75.6,61.8,28.81,SSW,199,8.3,10.9,62,0.00,,,0.28,proprietary,2013-06-01 18:46:00,
2013-06-01 14:51:00,75.0,63.3,28.81,South,185,5.8,7.7,67,0.00,,,0.28,proprietary,2013-06-01 18:51:00,
2013-06-01 14:56:00,75.0,63.1,28.81,SSW,202,6.5,9.5,66,0.00,,,0.28,proprietary,2013-06-01 18:56:00,
2013-06-01 15:01:00,75.6,63.3,28.80,SSW,204,5.6,8.4,65,0.01,,,0.29,proprietary,2013-06-01 19:01:00,
2013-06-01 15:06:00,75.9,62.9,28.80,South,187,7.6,10.2,63,0.01,,,0.29,proprietary,2013-06-01 19:06:00,
2013-06-01 15:11:00,75.3,62.9,28.81,South,186,8.6,10.9,65,0.01,,,0.29,proprietary,2013-06-01 19:11:00,
2013-06-01 15:16:00,76.5,63.5,28.81,South,190,8.1,10.2,64,0.01,,,0.29,proprietary,2013-06-01 19:16:00,
2013-06-01 15:21:00,76.0,63.3,28.81,South,184,6.8,8.4,64,0.01,,,0.29,proprietary,2013-06-01 19:21:00,
2013-06-01 15:26:00,75.6,63.8,28.80,SSW,193,9.1,13.6,66,0.01,,,0.29,proprietary,2013-06-01 19:26:00,
2013-06-01 15:31:00,74.9,63.8,28.81,SW,217,4.8,6.7,68,0.01,,,0.29,proprietary,2013-06-01 19:31:00,
2013-06-01 15:36:00,74.9,62.7,28.81,SW,230,5.1,9.3,65,0.01,,,0.29,proprietary,2013-06-01 19:36:00,
2013-06-01 15:41:00,74.7,62.4,28.81,SSW,198,6.7,13.3,65,0.01,,,0.29,proprietary,2013-06-01 19:41:00,
2013-06-01 15:46:00,74.5,61.9,28.81,SSW,197,7.5,10.8,64,0.01,,,0.29,proprietary,2013-06-01 19:46:00,
2013-06-01 15:51:00,74.9,62.0,28.80,SW,223,6.7,13.0,64,0.01,,,0.29,proprietary,2013-06-01 19:51:00,
2013-06-01 15:56:00,75.1,62.2,28.80,South,190,7.2,8.7,64,0.01,,,0.29,proprietary,2013-06-01 19:56:00,
2013-06-01 16:01:00,74.9,62.3,28.80,SW,235,3.3,4.3,64,0.00,,,0.29,proprietary,2013-06-01 20:01:00,
2013-06-01 16:06:00,74.9,61.7,28.80,SSW,199,7.2,9.8,63,0.00,,,0.29,proprietary,2013-06-01 20:06:00,
2013-06-01 16:11:00,75.0,62.6,28.81,SW,234,5.3,8.0,65,0.00,,,0.29,proprietary,2013-06-01 20:11:00,
2013-06-01 16:16:00,74.8,61.3,28.81,SSW,195,7.3,10.4,62,0.00,,,0.29,proprietary,2013-06-01 20:16:00,
2013-06-01 16:21:00,74.5,61.0,28.81,SSW,213,6.2,10.0,62,0.00,,,0.29,proprietary,2013-06-01 20:21:00,
2013-06-01 16:26:00,74.5,60.9,28.82,SW,217,4.4,8.7,62,0.00,,,0.29,proprietary,2013-06-01 20:26:00,
2013-06-01 16:31:00,74.4,61.5,28.82,SW,224,3.1,4.5,64,0.00,,,0.29,proprietary,2013-06-01 20:31:00,
2013-06-01 16:36:00,74.4,62.7,28.81,SW,219,6.8,12.9,66,0.00,,,0.29,proprietary,2013-06-01 20:36:00,
2013-06-01 16:41:00,74.7,62.3,28.81,SW,220,5.2,7.2,65,0.00,,,0.29,proprietary,2013-06-01 20:41:00,
2013-06-01 16:46:00,74.8,61.7,28.81,SSW,196,9.5,12.4,63,0.00,,,0.29,proprietary,2013-06-01 20:46:00,
2013-06-01 16:51:00,74.1,61.2,28.82,SSW,196,7.6,10.9,63,0.00,,,0.29,proprietary,2013-06-01 20:51:00,
2013-06-01 16:56:00,74.0,61.7,28.81,SSW,194,7.3,9.4,65,0.00,,,0.29,proprietary,2013-06-01 20:56:00,
2013-06-01 17:01:00,73.8,60.9,28.81,SW,214,8.7,13.7,64,0.00,,,0.29,proprietary,2013-06-01 21:01:00,
2013-06-01 17:06:00,73.9,61.2,28.82,SSW,198,4.8,7.1,64,0.00,,,0.29,proprietary,2013-06-01 21:06:00,
2013-06-01 17:11:00,73.6,61.5,28.81,South,185,7.1,8.8,65,0.00,,,0.29,proprietary,2013-06-01 21:11:00,
2013-06-01 17:16:00,72.7,63.0,28.81,SSW,192,7.2,10.2,71,0.00,,,0.29,proprietary,2013-06-01 21:16:00,
2013-06-01 17:21:00,71.1,62.6,28.81,SSW,194,4.4,6.1,74,0.00,,,0.29,proprietary,2013-06-01 21:21:00,
2013-06-01 17:26:00,70.3,63.4,28.82,SSW,199,3.9,7.3,78,0.00,,,0.29,proprietary,2013-06-01 21:26:00,
2013-06-01 17:31:00,69.9,63.8,28.82,SSW,212,3.1,4.7,80,0.00,,,0.29,proprietary,2013-06-01 21:31:00,
2013-06-01 17:36:00,69.8,63.6,28.82,South,180,2.9,4.1,80,0.00,,,0.29,proprietary,2013-06-01 21:36:00,
2013-06-01 17:41:00,69.6,64.0,28.82,SSW,205,2.2,2.9,82,0.00,,,0.29,proprietary,2013-06-01 21:41:00,
2013-06-01 17:46:00,69.6,64.2,28.81,SSW,197,2.2,3.0,82,0.00,,,0.29,proprietary,2013-06-01 21:46:00,
2013-06-01 17:51:00,69.5,64.2,28.81,South,187,3.1,4.4,83,0.00,,,0.29,proprietary,2013-06-01 21:51:00,
2013-06-01 17:56:00,69.5,64.3,28.81,South,179,2.2,3.0,83,0.00,,,0.29,proprietary,2013-06-01 21:56:00,
2013-06-01 18:01:00,69.6,64.2,28.81,SSW,199,3.6,4.5,82,0.00,,,0.29,proprietary,2013-06-01 22:01:00,
2013-06-01 18:06:00,69.7,64.0,28.80,South,182,3.2,4.7,81,0.00,,,0.29,proprietary,2013-06-01 22:06:00,
2013-06-01 18:11:00,69.8,64.2,28.80,South,175,0.1,1.1,82,0.00,,,0.29,proprietary,2013-06-01 22:11:00,
2013-06-01 18:16:00,69.9,64.3,28.80,SSW,192,1.9,2.6,82,0.00,,,0.29,proprietary,2013-06-01 22:16:00,
2013-06-01 18:21:00,69.9,64.2,28.80,SSW,213,1.4,2.3,82,0.00,,,0.29,proprietary,2013-06-01 22:21:00,
2013-06-01 18:26:00,69.8,64.3,28.79,WSW,256,0.5,1.6,82,0.00,,,0.29,proprietary,2013-06-01 22:26:00,
2013-06-01 18:31:00,69.7,64.3,28.80,South,177,3.2,4.6,83,0.00,,,0.29,proprietary,2013-06-01 22:31:00,
2013-06-01 18:36:00,69.5,64.0,28.79,SSW,192,3.5,4.6,82,0.00,,,0.29,proprietary,2013-06-01 22:36:00,
2013-06-01 18:41:00,69.4,63.8,28.79,SSW,194,3.1,3.8,82,0.00,,,0.29,proprietary,2013-06-01 22:41:00,
2013-06-01 18:46:00,69.5,63.7,28.79,SSW,201,3.7,4.9,81,0.00,,,0.29,proprietary,2013-06-01 22:46:00,
2013-06-01 18:51:00,69.6,63.2,28.79,South,186,3.8,5.0,80,0.00,,,0.29,proprietary,2013-06-01 22:51:00,
2013-06-01 18:56:00,69.7,63.3,28.79,SSW,205,3.4,4.4,80,0.00,,,0.29,proprietary,2013-06-01 22:56:00,
2013-06-01 19:01:00,69.8,63.0,28.78,South,175,3.3,4.3,78,0.00,,,0.29,proprietary,2013-06-01 23:01:00,
2013-06-01 19:06:00,69.8,62.6,28.78,South,181,2.7,4.0,77,0.00,,,0.29,proprietary,2013-06-01 23:06:00,
2013-06-01 19:11:00,69.7,63.0,28.78,South,180,3.9,4.7,79,0.00,,,0.29,proprietary,2013-06-01 23:11:00,
2013-06-01 19:16:00,69.9,62.6,28.79,South,176,3.8,4.3,77,0.00,,,0.29,proprietary,2013-06-01 23:16:00,
2013-06-01 19:21:00,69.9,62.4,28.79,SSW,197,3.6,4.3,77,0.00,,,0.29,proprietary,2013-06-01 23:21:00,
2013-06-01 19:26:00,69.8,62.4,28.78,SSE,161,2.9,3.5,77,0.00,,,0.29,proprietary,2013-06-01 23:26:00,
2013-06-01 19:31:00,69.9,63.0,28.78,SSE,164,3.3,3.8,78,0.00,,,0.29,proprietary,2013-06-01 23:31:00,
2013-06-01 19:36:00,69.8,63.0,28.77,SSE,154,2.4,3.3,79,0.00,,,0.29,proprietary,2013-06-01 23:36:00,
2013-06-01 19:41:00,69.6,62.6,28.77,SSW,194,2.6,3.4,78,0.00,,,0.29,proprietary,2013-06-01 23:41:00,
2013-06-01 19:46:00,69.7,62.2,28.77,SSW,210,0.9,1.6,77,0.00,,,0.29,proprietary,2013-06-01 23:46:00,
2013-06-01 19:51:00,69.7,62.4,28.77,South,187,2.1,2.3,77,0.00,,,0.29,proprietary,2013-06-01 23:51:00,
2013-06-01 19:56:00,69.4,63.0,28.77,SSE,163,2.8,3.1,79,0.00,,,0.29,proprietary,2013-06-01 23:56:00,
2013-06-01 20:01:00,69.3,62.8,28.77,SSE,164,1.8,2.2,79,0.00,,,0.29,proprietary,2013-06-02 00:01:00,
2013-06-01 20:06:00,69.3,62.9,28.77,SE,138,0.7,1.7,80,0.00,,,0.29,proprietary,2013-06-02 00:06:00,
2013-06-01 20:11:00,69.3,63.1,28.77,SSE,155,0.3,1.5,80,0.00,,,0.29,proprietary,2013-06-02 00:11:00,
2013-06-01 20:16:00,69.0,63.0,28.77,South,173,1.2,1.4,81,0.00,,,0.29,proprietary,2013-06-02 00:16:00,
2013-06-01 20:21:00,69.0,63.2,28.77,SSE,156,0.7,2.0,81,0.00,,,0.29,proprietary,2013-06-02 00:21:00,
2013-06-01 20:26:00,69.1,63.2,28.77,SSE,167,2.0,2.8,81,0.00,,,0.29,proprietary,2013-06-02 00:26:00,
2013-06-01 20:31:00,69.1,63.3,28.77,SE,142,2.9,3.3,81,0.00,,,0.29,proprietary,2013-06-02 00:31:00,
2013-06-01 20:36:00,69.0,63.0,28.77,SSE,161,2.5,3.2,81,0.00,,,0.29,proprietary,2013-06-02 00:36:00,
2013-06-01 20:41:00,68.8,63.1,28.77,SSE,152,3.3,3.7,82,0.00,,,0.29,proprietary,2013-06-02 00:41:00,
2013-06-01 20:46:00,68.5,63.1,28.77,SSE,154,2.5,2.9,82,0.00,,,0.29,proprietary,2013-06-02 00:46:00,
2013-06-01 20:51:00,68.3,62.9,28.76,SSE,147,2.8,3.4,82,0.00,,,0.29,proprietary,2013-06-02 00:51:00,
2013-06-01 20:56:00,68.1,63.0,28.76,SSE,159,2.8,3.2,83,0.00,,,0.29,proprietary,2013-06-02 00:56:00,
2013-06-01 21:01:00,67.8,62.8,28.76,SSE,151,2.9,3.4,83,0.00,,,0.29,proprietary,2013-06-02 01:01:00,
2013-06-01 21:06:00,67.7,62.7,28.76,SE,142,3.0,3.5,83,0.00,,,0.29,proprietary,2013-06-02 01:06:00,
2013-06-01 21:11:00,67.7,62.7,28.76,SSE,154,3.5,4.2,83,0.00,,,0.29,proprietary,2013-06-02 01:11:00,
2013-06-01 21:16:00,67.7,62.7,28.75,SSE,163,3.8,4.4,84,0.00,,,0.29,proprietary,2013-06-02 01:16:00,
2013-06-01 21:21:00,67.7,62.7,28.75,SSE,158,3.4,4.0,84,0.00,,,0.29,proprietary,2013-06-02 01:21:00,
2013-06-01 21:26:00,67.5,62.7,28.76,SSE,160,5.1,6.0,84,0.00,,,0.29,proprietary,2013-06-02 01:26:00,
2013-06-01 21:31:00,67.5,62.7,28.76,SSE,153,4.8,5.6,84,0.00,,,0.29,proprietary,2013-06-02 01:31:00,
2013-06-01 21:36:00,67.4,62.7,28.76,SSE,161,5.0,5.8,84,0.00,,,0.29,proprietary,2013-06-02 01:36:00,
2013-06-01 21:41:00,67.4,62.5,28.76,SSE,155,4.3,5.0,84,0.00,,,0.29,proprietary,2013-06-02 01:41:00,
2013-06-01 21:46:00,67.4,62.4,28.75,SSE,168,4.5,5.8,84,0.00,,,0.29,proprietary,2013-06-02 01:46:00,
2013-06-01 21:51:00,67.5,62.5,28.75,SSE,161,3.9,4.6,83,0.00,,,0.29,proprietary,2013-06-02 01:51:00,
2013-06-01 21:56:00,67.4,62.5,28.75,SSE,159,4.6,6.4,84,0.00,,,0.29,proprietary,2013-06-02 01:56:00,
2013-06-01 22:01:00,67.4,62.5,28.75,SSE,156,3.8,4.3,84,0.00,,,0.29,proprietary,2013-06-02 02:01:00,
2013-06-01 22:06:00,67.3,62.5,28.75,SSE,154,3.7,4.4,84,0.00,,,0.29,proprietary,2013-06-02 02:06:00,
2013-06-01 22:11:00,67.2,62.6,28.75,SSE,155,3.2,3.5,85,0.00,,,0.29,proprietary,2013-06-02 02:11:00,
2013-06-01 22:16:00,67.1,62.6,28.75,SSE,160,3.7,5.5,85,0.00,,,0.29,proprietary,2013-06-02 02:16:00,
2013-06-01 22:21:00,66.9,62.7,28.75,SSE,155,3.3,4.6,86,0.00,,,0.29,proprietary,2013-06-02 02:21:00,
2013-06-01 22:26:00,66.8,62.6,28.74,SSE,153,3.4,4.1,86,0.00,,,0.29,proprietary,2013-06-02 02:26:00,
2013-06-01 22:31:00,66.8,62.5,28.74,SSE,147,3.6,4.2,86,0.00,,,0.29,proprietary,2013-06-02 02:31:00,
2013-06-01 22:36:00,66.7,62.7,28.74,SSE,161,4.1,4.4,86,0.00,,,0.29,proprietary,2013-06-02 02:36:00,
2013-06-01 22:42:00,66.7,62.6,28.74,SSE,158,3.8,5.8,86,0.00,,,0.29,proprietary,2013-06-02 02:42:00,
2013-06-01 22:47:00,66.9,62.6,28.73,SSE,164,3.8,4.5,86,0.00,,,0.29,proprietary,2013-06-02 02:47:00,
2013-06-01 22:53:00,67.0,62.6,28.73,SSE,154,4.3,5.1,85,0.00,,,0.29,proprietary,2013-06-02 02:53:00,
2013-06-01 22:58:00,66.9,62.6,28.73,SSE,148,4.5,5.5,86,0.00,,,0.29,proprietary,2013-06-02 02:58:00,
2013-06-01 23:04:00,67.1,62.5,28.73,SSE,162,4.9,6.2,85,0.00,,,0.29,proprietary,2013-06-02 03:04:00,
2013-06-01 23:10:00,66.8,62.5,28.72,SSE,151,4.7,5.4,85,0.00,,,0.29,proprietary,2013-06-02 03:10:00,
2013-06-01 23:16:00,66.7,62.4,28.72,SSE,165,4.4,6.0,86,0.00,,,0.29,proprietary,2013-06-02 03:16:00,
2013-06-01 23:21:00,66.6,62.4,28.71,SSE,166,4.4,5.3,86,0.00,,,0.29,proprietary,2013-06-02 03:21:00,
2013-06-01 23:26:00,66.1,62.3,28.71,South,172,4.0,4.7,87,0.00,,,0.29,proprietary,2013-06-02 03:26:00,
2013-06-01 23:31:00,65.9,62.4,28.71,SSE,167,3.9,4.3,88,0.00,,,0.29,proprietary,2013-06-02 03:31:00,
2013-06-01 23:36:00,66.2,62.5,28.72,SSE,168,4.7,5.6,88,0.00,,,0.29,proprietary,2013-06-02 03:36:00,
2013-06-01 23:41:00,66.6,62.7,28.72,SSE,161,5.2,5.9,87,0.00,,,0.29,proprietary,2013-06-02 03:41:00,
2013-06-01 23:47:00,66.8,62.7,28.72,SSE,167,5.1,6.1,86,0.00,,,0.29,proprietary,2013-06-02 03:47:00,
2013-06-01 23:52:00,66.5,62.7,28.72,SSE,167,5.0,6.0,87,0.00,,,0.29,proprietary,2013-06-02 03:52:00,
2013-06-01 23:57:00,66.5,62.8,28.72,South,170,4.4,5.2,87,0.00,,,0.29,proprietary,2013-06-02 03:57:00,